Flag for Chile Weather past 2 weeks in Easter Island, Chile

Now
68 °F

Partly cloudy.


Feels Like: 68 °F
Forecast: 68 / 75 °F
Wind: 12 mph from East

Location: Isla De Pascua

Current Time: Dec 21, 2014 at 8:34:22 AM

Latest Report: Dec 21, 2014 at 8:00 AM


Visibility: N/A

Pressure: 30.30 "Hg

Humidity: 83%

Dew point: 63 °F

Location of Easter IslandLocation

Historic Weather in Easter Island — Graph

°F

Easter Island temperature yesterday

Maximum temperature yesterday: 77 °F (at 2:00 PM)
Minimum temperature yesterday: 68 °F (at 2:00 AM)
Average temperature yesterday: 72 °F

Past Weeks' High & Low Weather Summary

 TemperatureHumidityPressure
High81 °F (Dec 14, 1:00 PM)94% (Dec 14, 8:00 AM)30.45 "Hg (Dec 14, 8:00 AM)
Low59 °F (Dec 11, 4:00 AM)51% (Dec 14, 11:00 AM)30.09 "Hg (Dec 11, 5:00 AM)
Average70 °F75%30.27 "Hg
* Reported Dec 6 7:00 AM — Dec 21 7:00 AM, Easter Island, Weather by CustomWeather, © 2014

Note: Actual official high and low records may vary slightly from our data, if they occured in-between our weather recording intervals... More about our weather records

Advertising

Easter Island weather history for previous 24 hours

 ConditionsComfort  
Time TempWeatherWind HumidityBarometerVisibility
7:00 AM
Dec 21
68 °FPassing clouds.12 mph78%30.27 "HgN/A
6:00 AM68 °FPassing clouds.10 mph83%30.27 "HgN/A
5:00 AM66 °FPassing clouds.6 mph83%30.27 "HgN/A
4:00 AM68 °FPassing clouds.7 mph83%30.30 "HgN/A
2:00 AM70 °FPassing clouds.8 mph83%30.33 "HgN/A
1:00 AM70 °FPassing clouds.9 mph78%30.33 "HgN/A
12:00 AM70 °FPassing clouds.8 mph78%30.33 "HgN/A
11:00 PM
Dec 20
70 °FPassing clouds.10 mph78%30.30 "HgN/A
10:00 PM72 °FBroken clouds.12 mph73%30.30 "HgN/A
9:00 PM72 °FBroken clouds.12 mph78%30.27 "HgN/A
8:00 PM73 °FBroken clouds.15 mph69%30.27 "HgN/A
7:00 PM75 °FBroken clouds.15 mph65%30.27 "HgN/A
6:00 PM77 °FBroken clouds.15 mph61%30.27 "HgN/A
5:00 PM75 °FBroken clouds.15 mph65%30.27 "HgN/A
4:00 PM75 °FBroken clouds.18 mph69%30.27 "HgN/A
3:00 PM75 °FBroken clouds.15 mph61%30.30 "HgN/A
2:00 PM77 °FBroken clouds.18 mph65%30.30 "HgN/A
1:00 PM75 °FBroken clouds.17 mph69%30.30 "HgN/A
12:00 PM75 °FBroken clouds.18 mph65%30.30 "HgN/A
11:00 AM75 °FBroken clouds.16 mph65%30.30 "HgN/A
10:00 AM72 °FScattered clouds.13 mph73%30.30 "HgN/A
9:00 AM70 °FScattered clouds.12 mph78%30.27 "HgN/A
8:00 AM68 °FPassing clouds.6 mph83%30.27 "HgN/A
Weather by CustomWeather, © 2014

See weather overviewHow to use our weather pages